KBTL-WX Weather Reports


Display with metric or nautical units.
time (UTC)temp
F
wind
direction
speed
MPH
gust
MPH
rain 1hr
in
rain 24hr
in
rain mn
in
humidity
%
barometer
mb
20260505151516 49 278 11.0 0.0 0.05 0.16 0.16 72 974.2
20260505124515 49 268 11.0 0.0 0.00 0.09 0.09 65 972.6
20260505123034 49 274 10.0 0.0 0.00 0.09 0.09 68 971.5
20260505121515 49 261 10.0 0.0 0.00 0.09 0.09 68 971.5
20260505120043 50 251 8.0 0.0 0.00 0.09 0.09 68 971.5
20260505114516 50 252 8.0 0.0 0.00 0.09 0.09 67 971.5
20260505113031 49 263 7.0 0.0 0.00 0.09 0.09 65 970.3
20260505111515 49 271 9.0 0.0 0.00 0.09 0.09 65 970.3
20260505101515 50 248 8.0 0.0 0.00 0.09 0.09 72 969.1
20260505100042 49 214 6.0 0.0 0.00 0.09 0.09 72 969.1
20260505094515 50 240 6.0 0.0 0.00 0.09 0.09 69 969.0
20260505093036 50 238 5.0 0.0 0.00 0.09 0.09 70 969.0
20260505091515 51 260 9.0 0.0 0.00 0.09 0.09 70 969.1
20260505090043 52 262 8.0 0.0 0.00 0.09 0.09 70 969.1
20260505084513 52 273 11.0 0.0 0.00 0.09 0.09 83 969.0
20260505083032 54 268 11.0 0.0 0.00 0.09 0.09 83 968.0
20260505081515 55 269 12.0 0.0 0.00 0.09 0.09 83 968.0
20260505080039 55 253 11.0 0.0 0.00 0.09 0.09 85 968.9
20260505074515 55 243 11.0 0.0 0.00 0.09 0.09 81 968.3
20260505073035 55 244 12.0 0.0 0.00 0.09 0.09 81 968.3
20260505071516 56 232 11.0 0.0 0.00 0.09 0.09 81 968.3
20260505070040 56 227 12.0 0.0 0.00 0.09 0.09 81 968.3
20260505064515 56 232 9.0 0.0 0.00 0.09 0.09 76 969.0
20260505063030 57 230 8.0 0.0 0.00 0.09 0.09 79 968.3
20260505061516 57 230 8.0 0.0 0.00 0.09 0.09 79 968.3
20260505060042 57 232 9.0 0.0 0.00 0.09 0.09 79 968.3
20260505054516 58 237 11.0 0.0 0.00 0.09 0.09 75 968.8
20260505053037 58 201 13.0 0.0 0.00 0.09 0.09 76 968.6
20260505051515 58 202 11.0 0.0 0.00 0.09 0.09 76 968.6
20260505041515 59 218 10.0 0.0 0.00 0.10 0.10 77 968.1
20260505040041 59 202 7.0 0.0 0.00 0.10 0.10 77 968.1
20260505034512 59 173 10.0 0.0 0.10 0.10 0.10 69 968.4
20260505033034 60 189 9.0 0.0 0.03 0.06 0.06 79 968.3
20260505031515 60 192 9.0 0.0 0.03 0.06 0.06 79 968.3
20260505030040 60 194 8.0 0.0 0.03 0.06 0.06 79 968.3
20260505024515 61 224 9.0 0.0 0.02 0.02 0.02 62 969.1
20260505023035 61 210 13.0 0.0 0.02 0.02 0.02 56 969.1
20260505021515 64 216 15.0 0.0 0.00 0.01 0.01 56 969.1
20260505020039 65 219 17.0 0.0 0.00 0.01 0.01 56 969.1
20260505014515 66 218 17.0 0.0 0.00 0.00 0.00 56 967.9
20260505013032 65 213 13.0 0.0 0.00 0.00 0.00 56 967.9
20260505011516 62 204 24.0 0.0 0.00 0.00 0.00 56 968.0
20260505010037 66 215 15.0 0.0 0.00 0.00 0.00 56 968.0
20260505004515 66 215 16.0 0.0 0.00 0.00 0.00 39 968.1
20260505003031 67 215 17.0 0.0 0.00 0.00 0.00 49 969.1
20260505001514 66 211 14.0 0.0 0.00 0.00 0.00 49 968.9
20260505000037 66 215 14.0 0.0 0.00 0.00 0.00 49 968.9
20260504234514 68 218 20.0 0.0 0.00 0.00 0.00 46 968.2
20260504233032 71 222 15.0 0.0 0.00 0.00 0.00 37 968.5
20260504231514 71 232 11.0 0.0 0.00 0.00 0.00 37 968.6
20260504230037 72 245 12.0 0.0 0.00 0.00 0.00 37 968.6
20260504224514 73 257 15.0 0.0 0.00 0.00 0.00 36 967.6
20260504223034 73 241 18.0 0.0 0.00 0.00 0.00 40 968.1
20260504221514 73 257 16.0 0.0 0.00 0.00 0.00 40 968.1
20260504220041 74 256 16.0 0.0 0.00 0.00 0.00 40 968.1
20260504214513 74 247 17.0 0.0 0.00 0.00 0.00 41 969.2
20260504213034 74 241 18.0 0.0 0.00 0.00 0.00 41 969.2
20260504211513 74 233 18.0 0.0 0.00 0.00 0.00 38 968.3
20260504210039 74 234 17.0 0.0 0.00 0.00 0.00 38 968.3
20260504204518 74 236 17.0 0.0 0.00 0.00 0.00 43 968.9
20260504203028 73 230 17.0 0.0 0.00 0.00 0.00 43 968.9
20260504201519 74 220 18.0 0.0 0.00 0.00 0.00 43 968.9
20260504200036 73 219 17.0 0.0 0.00 0.00 0.00 39 968.4
20260504194519 74 220 18.0 0.0 0.00 0.00 0.00 36 969.8
20260504193036 73 222 17.0 0.0 0.00 0.00 0.00 36 969.8
20260504191519 73 227 18.0 0.0 0.00 0.00 0.00 36 969.8
20260504190040 73 223 18.0 0.0 0.00 0.00 0.00 36 969.8
20260504184514 72 219 18.0 0.0 0.00 0.00 0.00 32 970.6
20260504183037 73 222 17.0 0.0 0.00 0.00 0.00 30 970.2
20260504181519 73 222 17.0 0.0 0.00 0.00 0.00 30 970.2
20260504180042 73 224 16.0 0.0 0.00 0.00 0.00 30 970.2
20260504174519 72 220 16.0 0.0 0.00 0.00 0.00 35 971.4
20260504173030 72 217 17.0 0.0 0.00 0.00 0.00 36 971.0
20260504171518 71 218 17.0 0.0 0.00 0.00 0.00 36 971.0